Regional Weather Roundup
Issued by NWS Green Bay, WI

Home | Current Version | Previous Version | Graphics & Text | Print | Product List | Glossary Off
Versions: 1 2 3 4 5 6 7 8 9 10 11 12 13 14 15 16 17 18 19 20 21 22 23 24 25 26 27 28 29 30 31 32 33 34 35 36 37 38 39 40 41 42 43 44 45 46 47 48 49 50

000
ASUS43 KGRB 280600
RWRGRB

NORTH-CENTRAL AND NORTHEAST WISCONSIN REGIONAL WEATHER ROUNDUP
NATIONAL WEATHER SERVICE GREEN BAY WI
100 AM CDT WED JUN 28 2017

WIZ005-009-010>012-018-019-280700-
NORTH CENTRAL WISCONSIN

CITY           SKY/WX    TMP DP  RH WIND       PRES   REMARKS
IRONWOOD       CLEAR     61  48  62 S8        29.88S
MANITOWISH WTR NOT AVBL
ARBOR VITAE    NOT AVBL
EAGLE RIVER    NOT AVBL
LAND O LAKES   NOT AVBL
RHINELANDER    CLEAR     57  49  74 SW8       29.94F
PHILLIPS       NOT AVBL
ANTIGO         NOT AVBL
TOMAHAWK       NOT AVBL
MERRILL        NOT AVBL
$$

WIZ013-073-280700-
NORTHEAST WISCONSIN

CITY           SKY/WX    TMP DP  RH WIND       PRES   REMARKS
IRON MOUNTAIN  CLOUDY    59  46  62 CALM      29.92F
MARINETTE      PTCLDY    60  50  69 SW6       29.96S
$$

WIZ017-030-035>037-045-280700-
CENTRAL WISCONSIN

CITY           SKY/WX    TMP DP  RH WIND       PRES   REMARKS
MEDFORD        NOT AVBL
WAUSAU           N/A    N/A N/A N/A MISG      29.92F
MOSINEE        NOT AVBL
MARSHFIELD     CLOUDY    55  47  74 SW7       29.93F
WISC RAPIDS    PTCLDY    59  48  67 S7        29.95F
STEVENS POINT  NOT AVBL
WAUPACA        NOT AVBL
SHAWANO        NOT AVBL
CLINTONVILLE   NOT AVBL
WAUTOMA        PTCLDY    51  50  96 CALM      29.97F
$$

WIZ038-039-048-051-280700-
FOX VALLEY

CITY           SKY/WX    TMP DP  RH WIND       PRES   REMARKS
NWS GREEN BAY  CLEAR     60  53  77 S8        29.97F
APPLETON       NOT AVBL
OSHKOSH        CLEAR     57  49  74 S8        29.98F
FOND DU LAC    CLEAR     56  49  77 S6        30.00S
$$

WIZ022-050-052-280700-
EAST CENTRAL WISCONSIN

CITY           SKY/WX    TMP DP  RH WIND       PRES   REMARKS
EPHRAIM        NOT AVBL
WASHINGTON ISL NOT AVBL
STURGEON BAY     N/A     61  50  67 S8        29.98S
MANITOWOC      NOT AVBL
SHEBOYGAN      CLEAR     53  52  96 CALM      30.01R FOG
$$

LMZ563-521-522-541>543-280700-
LAKESHORE

STATION/POSITION TIME  TEMP    WIND        PRES    VSBY  WAVE
                       AIR SEA DIR/SP/G                  HT/PER
                 (UTC) (F)     (DEG/KT/KT) (MB)    (MI)  (FT/S)
SHEBOYGAN LKSHOR 0500   60     190/  9/ 10 1015.7R
KEWAUNEE LKSHORE 0530   54     180/  6/  6 1014.9F
ALGOMA MARINA    0503   56      CALM  /  2   N/A
NORTHPORT PIER   0540   61     180/  3/  6 1014.2S
N MID LAKE BUOY  0450   57 55  190/ 14/ 14 1015.1R         3/ 5
S GREEN BAY BUOY 0530   66     200/ 12/ 14 1014.4S
SISTER BAY LKSHO 0523   65     180/ 10/ 12   N/A
CHAMBERS ISLAND  0540   65     190/  4/ 10 1013.9S
MENOMINEE LKSHOR 0524          210/  7/ 11 1013.5
$$



USA.gov is the U.S. government's official web portal to all federal, state and local government web resources and services.